Content
SEND FEEDBACK

Daily
Averages
Monthly
Summary
India

CHENNAI, INDIA


Home > Asia > India
Elevation: 52 feet     Latitude: 13 00N     Longitude: 080 11E

WEATHER
 
SELECT A DAY
Number of Records: 199,694;   Date Range: 7/1/96 - 4/23/14
 
SHARE

PRINT THIS DATA

[ ← Previous Day ]
WEATHER ALMANAC - SEPTEMBER 15, 2013
[ Next Day → ]
[ °C ]   °F
Weather ElementAverageHighLow
Temperature85.6 °F94 °F (2:30 pm)78.8 °F (4:40 am)
Dewpoint76.8 °F78.8 °F (1:40 pm)75.2 °F (5:10 am)
Humidity75.1 %94 % (4:40 am)50 % (2:30 pm)
Barometer29.63 in29.73 in (8:30 am)29.53 in (2:40 pm)
Wind Speed5 mph11.5 mph (9:40 am)
Weather ElementAverage
Visibility4.2 mi
Wind DirectionSSW (208.6 °)

Weather ElementTotal
Precipitation---
Cooling Degree Days21.4 (Base 65)
Growing Degree Days36.4 (Base 50)
Averaged from 52 records on September 15, 2013
WEATHER CONDITIONS BREAKOUT
WIND DIRECTION BREAKOUT
WEATHER BY HOUR - SEPTEMBER 15, 2013
[ °C ]   °F
Local TimeTemperatureDewpointHumidityBarometerVisibilityWind DirectionWind SpeedGust SpeedPrecipitationEventsConditions
12:40 AM80.6 °F77.0 °F89 %29.65 in3.7 miCalmScattered Clouds
1:10 AM80.6 °F77.0 °F89 %29.65 in3.7 miCalmScattered Clouds
1:40 AM80.6 °F77.0 °F89 %29.65 in3.7 miCalmScattered Clouds
2:10 AM80.6 °F77.0 °F89 %29.65 in2.5 miNorth (350°)3.5 mphHaze
2:30 AM80.0 °F76.0 °F86 %29.66 in2.0 miSouth (180°)2.3 mphPartly Cloudy
2:40 AM80.6 °F77.0 °F89 %29.62 in2.5 miCalmHaze
3:10 AM80.6 °F77.0 °F89 %29.62 in2.5 miNorth (360°)4.6 mphHaze
3:40 AM80.6 °F77.0 °F89 %29.62 in2.5 miNorth (360°)3.5 mphHaze
4:10 AM80.6 °F77.0 °F89 %29.62 in2.5 miNorth (360°)3.5 mphHaze
4:40 AM78.8 °F77.0 °F94 %29.62 in2.5 miNorth (360°)4.6 mphHaze
5:10 AM78.8 °F75.2 °F89 %29.62 in2.5 miNorth (360°)4.6 mphHaze
5:30 AM79.0 °F76.0 °F87 %29.67 in2.0 miWest (270°)3.5 mphScattered Clouds
5:40 AM78.8 °F75.2 °F89 %29.65 in2.5 miNorth (360°)3.5 mphHaze
6:10 AM78.8 °F75.2 °F89 %29.65 in2.5 miCalmHaze
7:40 AM82.4 °F75.2 °F79 %29.68 in4.3 miWSW (250°)6.9 mphPartly Cloudy
8:10 AM84.2 °F75.2 °F74 %29.71 in5.0 miWest (260°)6.9 mphPartly Cloudy
8:30 AM86.0 °F76.0 °F66 %29.73 in6.0 miWest (270°)2.3 mphScattered Clouds
8:40 AM86.0 °F75.2 °F70 %29.71 in5.0 miWest (260°)9.2 mph
9:10 AM86.0 °F75.2 °F70 %29.71 inWest (260°)10.4 mphClear
9:40 AM87.8 °F75.2 °F66 %29.68 inWest (260°)11.5 mphClear
10:10 AM87.8 °F75.2 °F66 %29.68 inWest (260°)8.1 mphClear
10:40 AM89.6 °F77.0 °F66 %29.68 in6.2 miWNW (300°)4.6 mphPartly Cloudy
11:10 AM89.6 °F77.0 °F66 %29.65 in6.2 miWNW (290°)9.2 mphPartly Cloudy
11:30 AM91.0 °F76.0 °F54 %29.69 in6.0 miWest (270°)2.3 mphScattered Clouds
11:40 AM91.4 °F77.0 °F63 %29.65 in6.2 miWest (270°)9.2 mphPartly Cloudy
12:10 PM91.4 °F77.0 °F63 %29.62 in6.2 miWest (260°)8.1 mphScattered Clouds
12:40 PM91.4 °F75.2 °F59 %29.62 in6.2 miWest (270°)6.9 mphScattered Clouds
1:10 PM91.4 °F77.0 °F63 %29.59 in6.2 miWNW (290°)8.1 mphScattered Clouds
1:40 PM93.2 °F78.8 °F63 %29.56 in6.2 miWest (260°)8.1 mphScattered Clouds
2:10 PM93.2 °F78.8 °F63 %29.56 in6.2 miWSW (250°)8.1 mphScattered Clouds
2:30 PM94.0 °F77.0 °F50 %29.58 in6.0 miWSW (250°)2.3 mphPartly Cloudy
2:40 PM93.2 °F75.2 °F56 %29.53 in6.2 miSW (220°)6.9 mphScattered Clouds
3:10 PM91.4 °F75.2 °F59 %29.53 in6.2 miSSE (150°)8.1 mphPartly Cloudy
3:40 PM91.4 °F77.0 °F63 %29.53 in5.0 miSSE (150°)5.8 mphPartly Cloudy
4:10 PM89.6 °F78.8 °F70 %29.53 in4.3 miSE (130°)4.6 mphPartly Cloudy
4:40 PM87.8 °F77.0 °F70 %29.53 in4.3 miSouth (170°)8.1 mphPartly Cloudy
5:10 PM87.8 °F77.0 °F70 %29.56 in4.3 miSE (140°)4.6 mphPartly Cloudy
5:30 PM87.0 °F78.0 °F68 %29.58 in6.0 miSE (140°)2.3 mphPartly Cloudy
5:40 PM87.8 °F77.0 °F70 %29.56 in4.3 miSSE (150°)6.9 mphPartly Cloudy
6:10 PM86.0 °F77.0 °F74 %29.56 in3.7 miSSE (160°)5.8 mphScattered Clouds
6:40 PM86.0 °F77.0 °F74 %29.56 in3.7 miSouth (170°)10.4 mphPartly Cloudy
7:10 PM86.0 °F77.0 °F74 %29.59 in3.7 miSouth (180°)8.1 mphPartly Cloudy
7:40 PM84.2 °F77.0 °F79 %29.59 in3.7 miSouth (180°)4.6 mphPartly Cloudy
8:10 PM84.2 °F77.0 °F79 %29.62 in3.7 miSSW (210°)5.8 mphPartly Cloudy
8:40 PM84.2 °F77.0 °F79 %29.65 in3.7 miCalmPartly Cloudy
9:10 PM84.2 °F77.0 °F79 %29.65 in3.7 miSSW (200°)3.5 mphPartly Cloudy
9:40 PM84.2 °F77.0 °F79 %29.65 in3.7 miSouth (190°)3.5 mphPartly Cloudy
10:10 PM84.2 °F78.8 °F84 %29.65 in3.7 miSouth (190°)4.6 mphPartly Cloudy
10:40 PM84.2 °F78.8 °F84 %29.65 in3.7 miCalmPartly Cloudy
11:10 PM84.2 °F78.8 °F84 %29.65 in3.7 miSouth (190°)5.8 mphScattered Clouds
11:30 PM83.0 °F78.0 °F81 %29.68 in2.0 miCalmPartly Cloudy
11:40 PM84.2 °F78.8 °F84 %29.65 in3.7 miSW (230°)5.8 mphScattered Clouds
Hourly data recorded from VOMM, located 1.80 miles away from Chennai, India







STORIES FROM OUR PARTNERS